Timeline UpdatesTrip UpdatesNews PostsPvt PostsTravel TipsAdmin PostsConv PostsFollowed PostsChat RequestsBlog PostsPNR Posts

Disclaimer
Search
 
 
Thu Jul 24, 2014 07:49:53 ISTHomeTrainsΣChainsAtlasPNRForumGalleryNewsFAQTripsMembersLoginFeedback
No Recent News for this Train
Other Trains in the News **new
Latest...
.
Tue Nov 19, 2013 (11:57PM)
⇐ Return Journey: Train# 56323

56324/Mangalore - Coimbatore Fast Passenger (UnReserved)

Nov 01 2013 (5:47AM)
Change Departure Station:
Change Arrival Station:
Post a Train Travel TipPost a Train Travel Tip **new
Post a Comment/Question/Picture/VideoPost a Comment/Question/Picture/Video
Pantry/Catering
???
RSA - Rake Sharing
RSA; with 56319/56320 Nagercoil Coimbatore Fast Passenger; Srivatsa Udupa
Rake/Coach Composition
LOCO=SLR=UR=UR=UR=UR=UR=UR=UR=UR=UR=UR=UR=UR=UR=UR=SLR
Loco
ED WDM 2
News    PNR    Forum    Time-Table    Availability    Fare Chart    Map    Arr/Dep History    Trips    Gallery    ΣChains    X/O    Timeline    
Travel Time: 1h 22m    8 halts    Distance: 67 km    Avg Speed: 49 km/hr
Type: Passenger
Zone: SR/Southern
Departs @ 08:29
Platform# ???
SMTWTFS
Manjeshwar/MJS 
Arrives @ 09:51
Platform# ???
SMTWTFS
Charvattur/CHV 

8 halts. 8 intermediate Stations between Manjeshwar and Charvattur

Show ALL intermediate Stations  Show Old Time-Table

#CodeStation NameX/OArrivesAvgDepartsAvgHaltPFDay#KmSpeedElevZoneAddress
1MAQMangalore Central (4)  -08:00-31-16.82114mSRMangalore 575001, Karnataka
2ULLUllal (2)  08:19-08:20-1m--1-10.37726mSRSomeshwar, Karnataka
3MJS»Manjeshwar (3)»  08:28-08:29-1m--10.05912mSRManjeshwar, Kerala
4UAAUppala (2)X  08:36-08:37-1m--16.95916mSRKasaragod District, Kerala
5KMQKumbala (2)  08:47-08:48-1m--116.77323mSRKumbla, Kerala
6KGQKasaragod (3)  08:58-09:00-2m--128.92918mSRTel: 04994 220800, Kerala
7KLADKalanad HaltXO  09:06-09:07-1m--131.8663mSRKasaragod, Kerala
8KQKKottikkulam (2)X  09:13-09:14-1m--138.44225mSRBekal, Kerala
9BFRBekal Fort (2)X  09:21-09:22-1m--143.27511mSRPallikere, Kerala
10KZEKanhangad (3)  09:29-09:31-2m--152.05115mSRKanhangad, Kerala
11NLENileshwar (2)  09:42-09:43-1m--161.34012mSRNileswaram, Kerala
12CHV•Charvattur (3)•  09:51-09:52-1m--166.56414mSRKasaragod district, Kerala
13TKQTrikkarippur  10:00-10:01-1m--175.15313mSRKasargod district, Kerala
14PAYPayyanur (3)X  10:08-10:09-1m--181.3210mSRKannur District, Kerala
15ELMEzhimala  10:17-10:18-1m--184.17615mSRKannur District, Kerala
16PAZPayangadi (2)  10:25-10:26-1m2192.95012mSRKannur District, Kerala
17KPQKannapuram (2)X  10:35-10:36-1m21100.51209mSRKannur District, Kerala
18PPNSPappinisseri (2)  10:39-10:40-1m--1106.5198mSRKannur District, Kerala
19VAPMValapattanam (2)  10:45-10:46-1m--1108.0258mSRKannur District, Kerala
20CQLChirakkal (2)X  10:51-10:52-1m--1110.11027mSRKannur district, Kerala
21CANKannur Main (3)  11:20-11:25-5m31114.96214mSRKannur Tel: 0497 2705555, Kerala
22TLYThalassery (2)X  11:45-11:46-1m--1135.6509mSRKannur, Kerala
23MAHEMahe (2)  11:57-11:58-1m--1144.94516mSRMahe, Puducherry
24MUKEMukkali  12:03-12:04-1m--1148.64418mSRChombala, Kerala
25NAUNadapuram Road  12:09-12:10-1m--1152.36518mSRMadappallly, Kerala
26BDJVadakara (2)  12:15-12:16-1m11157.79711mSRCalicut / Station Ph No : 0496-2524254, Kerala
27PYOLPayyoli (2)  12:22-12:23-1m--1167.44912mSRPayyoli, Kerala
28QLDKoyilandy (3)  12:38-12:39-1m--1179.74111mSRQuilandi, Kerala
29CLTKozhikode Main (4)X  13:15-13:20-5m31204.02211mSRCalicut Tel: 0495 2701234, Kerala
30KULKallayi Kozhikode South (2)  13:25-13:26-1m--1205.8610mSRCalicut, Kerala
31FKFerok (2)  13:34-13:35-1m--1213.95719mSRFeroke, Kerala
32KNKadalundi (2)  13:40-13:41-1m--1218.7828mSRKozhikode district, Kerala
33VLIVallikunnu (2)  13:45-13:46-1m--1224.23713mSRVallikkunnu, Kerala
34PGIParappangadi (2)  13:54-13:55-1m--1229.15419mSRParappanangadi, Kerala
35TATanur (3)XO  14:04-14:05-1m--1237.23711mSRMalappuram, Kerala
36TIRTirur (3)X  14:18-14:20-2m31245.2579mSRTel: 0494 2422240, Kerala
37TUATirunnavaya (2)  14:29-14:30-1m--1253.84310mSRThirunavaya, Kerala
38KTUKuttippuram (2)X  14:39-14:40-1m--1260.36217mSRKuttippuram, Kerala
39PUMPallippuram  14:49-14:50-1m--1269.6615mSRPalakkad, Kerala
40PTBPattambi (2)XO  14:59-15:00-1m--1278.81221mSRPattambi, Kerala
41SRRShoranur Junction (7)X  16:00-16:15-15m51290.32926mSRShoranur ph.no 0466-2222913, Kerala
42MNURMannanur (2)  16:27-16:28-1m--1296.14733mSRVaniamkulam Mannanur Rd, Kerala
43OTPOttappalam (2)  16:37-16:38-1m--1303.24530mSROttapalam, Kerala
44PLPMPalappuram  16:44-16:45-1m--1307.73142mSRKayarampara-Meetna Rd, Kerala
45LDYLakkidi (2)X  16:51-16:52-1m--1310.75935mSRPalakkad, Kerala
46MNYMankara (2)  17:00-17:01-1m--1318.55665mSRPalakkad, Kerala
47PLLParli (2)  17:09-17:10-1m--1326.02163mSRPalakkad, Kerala
48PGTPalakkad Junction (4)XO  17:35-18:00-25m31334.64884mSRPalghat Tel: 0491 2555231, Kerala
49KJKDKanjikode (2)X  18:17-18:18-1m--1348.3460mSRPalakkad, Kerala
50WRAWalayarX  18:34-18:35-1m--1360.633213mSRPalakkad, Kerala
51ETMDEttimadai (2)  18:51-18:52-1m--1369.544313mSREttimadai, Tamil Nadu
52MDKIMadukaraiX  18:59-19:00-1m--1374.633344mSRCoimbatore, Tamil Nadu
53PTJPodanur Junction (4)  19:18-19:20-2m11384.523400mSRPodanur jtn ph.no. 0422-2410784, Tamil Nadu
54CBECoimbatore Main Junction (6)  19:35----1390.4-416mSRCoimbatore 641001, Tamil Nadu
Scroll to Top
Scroll to Bottom